Adelaide, Australia

10:35 PM ACDT on March 25, 2017 (GMT +1030)
Adelaide International

Weather History for YPAD - November, 2013

Change the Weather History Date:

Thursday, November 21, 2013

  Actual Average Record
Temperature  
Mean Temperature 57 °F -  
Max Temperature 64 °F 77 °F 91 °F (1997)
Min Temperature 50 °F 57 °F 50 °F (1996)
Degree Days  
Heating Degree Days 8    
Growing Degree Days 7 (Base 50)    
Moisture  
Dew Point 39 °F    
Average Humidity 50    
Maximum Humidity 72    
Minimum Humidity 20    
Precipitation  
Precipitation 0.00 in 0.03 in - ()
Sea Level Pressure  
Sea Level Pressure 29.95 in    
Wind  
Wind Speed 11 mph ()    
Max Wind Speed 21 mph    
Max Gust Speed -    
Visibility 7.6 miles    
Events      
Averages and records for this station are not official NWS values.
T = Trace of Precipitation, MM = Missing Value Source: Averaged Metar Reports

Daily Weather History Graph

Daily Weather History Graph

Search for Another Location

Airport or City:

Trip Planner

Search our weather history database for the weather conditions in past years. The results will help you decide how hot, cold, wet, or windy it might be!

Date:

Astronomy

Nov. 21, 2013 Rise Set
Actual Time 5:58 AM ACDT 8:05 PM ACDT
Civil Twilight 5:30 AM ACDT 8:33 PM ACDT
Nautical Twilight 4:55 AM ACDT 9:08 PM ACDT
Astronomical Twilight 4:18 AM ACDT 9:45 PM ACDT
Moon 10:58 PM ACDT (11/21) 8:42 AM ACDT (11/21)
Length of Visible Light 15h 03m
Length of Day
14h 06m
Waning Gibbous, 89% of the Moon is Illuminated
Nov 21
Waning Gibbous
Nov 26
Last Quarter
Dec 3
New
Dec 10
First Quarter
Dec 17
Full

Hourly Weather History & Observations

Time (ACDT) Temp. Dew Point Humidity Pressure Visibility Wind Dir Wind Speed Gust Speed Precip Events Conditions
12:00 AM 55 °F 47 °F 65% 29.94 in 19 mi South 10.4 mph - -   Partly Cloudy
12:00 AM 55.4 °F 46.4 °F 72% 29.92 in 6.2 mi South 10.4 mph - N/A   Scattered Clouds
12:30 AM 55.4 °F 46.4 °F 72% 29.92 in 6.2 mi SSE 12.7 mph - N/A   Scattered Clouds
1:00 AM 55.4 °F 46.4 °F 72% 29.92 in 6.2 mi SSE 13.8 mph - N/A   Scattered Clouds
1:30 AM 55 °F 46 °F 63% 29.92 in - SSE 16.1 mph - -  
1:30 AM 55.4 °F 46.4 °F 72% 29.92 in 6.2 mi SSE 16.1 mph - N/A   Scattered Clouds
2:00 AM 55.4 °F 44.6 °F 67% 29.92 in 6.2 mi SSE 13.8 mph - N/A   Scattered Clouds
2:30 AM 55.4 °F 44.6 °F 67% 29.92 in 6.2 mi SSE 12.7 mph - N/A   Mostly Cloudy
3:00 AM 54 °F 44 °F 61% 29.92 in 22 mi SSE 12.7 mph - -   Partly Cloudy
3:00 AM 53.6 °F 44.6 °F 72% 29.92 in 6.2 mi SSE 12.7 mph - N/A   Scattered Clouds
3:30 AM 53.6 °F 44.6 °F 72% 29.92 in 6.2 mi SSE 11.5 mph - N/A   Scattered Clouds
4:00 AM 53.6 °F 44.6 °F 72% 29.92 in 6.2 mi SSE 10.4 mph - N/A   Partly Cloudy
4:30 AM 54 °F 45 °F 62% 29.93 in - SSE 9.2 mph - -  
4:30 AM 53.6 °F 44.6 °F 72% 29.92 in 6.2 mi SSE 9.2 mph - N/A   Scattered Clouds
5:00 AM 53.6 °F 44.6 °F 72% 29.92 in 6.2 mi SE 9.2 mph - N/A   Scattered Clouds
5:30 AM 51.8 °F 42.8 °F 71% 29.95 in 6.2 mi South 8.1 mph - N/A   Scattered Clouds
6:00 AM 51 °F 43 °F 67% 29.96 in 16 mi South 5.8 mph - -   Partly Cloudy
6:00 AM 51.8 °F 42.8 °F 71% 29.95 in 6.2 mi South 5.8 mph - N/A   Mostly Cloudy
6:30 AM 51.8 °F 42.8 °F 71% 29.95 in 6.2 mi SSW 4.6 mph - N/A   Scattered Clouds
7:00 AM 53.6 °F 42.8 °F 67% 29.95 in 6.2 mi SSW 4.6 mph - N/A   Scattered Clouds
7:30 AM 55 °F 42 °F 50% 29.97 in - SSE 4.6 mph - -  
7:30 AM 55.4 °F 41.0 °F 58% 29.95 in 6.2 mi SSE 4.6 mph - N/A   Mostly Cloudy
8:00 AM 55.4 °F 39.2 °F 54% 29.98 in 6.2 mi SSE 10.4 mph - N/A   Mostly Cloudy
8:30 AM 59.0 °F 35.6 °F 42% 29.98 in 6.2 mi South 10.4 mph - N/A   Mostly Cloudy
9:00 AM 59 °F 33 °F 26% 30.00 in 19 mi South 10.4 mph - -   Partly Cloudy
9:00 AM 59.0 °F 33.8 °F 39% 29.98 in 6.2 mi South 10.4 mph - N/A   Mostly Cloudy
9:30 AM 59.0 °F 32.0 °F 36% 29.98 in 6.2 mi South 9.2 mph - N/A   Mostly Cloudy
10:00 AM 60.8 °F 30.2 °F 31% 29.98 in 6.2 mi South 9.2 mph - N/A   Mostly Cloudy
10:30 AM 62 °F 31 °F 20% 29.98 in - SE 12.7 mph - -  
10:30 AM 62.6 °F 30.2 °F 30% 29.98 in 6.2 mi SE 12.7 mph - N/A   Mostly Cloudy
11:00 AM 60.8 °F 37.4 °F 42% 29.95 in 6.2 mi SW 16.1 mph - N/A   Mostly Cloudy
11:30 AM 62.6 °F 37.4 °F 39% 29.98 in 6.2 mi SW 18.4 mph - N/A   Mostly Cloudy
12:00 PM 61 °F 38 °F 31% 29.98 in 19 mi South 10.4 mph - -   Partly Cloudy
12:00 PM 60.8 °F 39.2 °F 45% 29.98 in 6.2 mi South 10.4 mph - N/A   Mostly Cloudy
12:30 PM 60.8 °F 39.2 °F 45% 29.95 in 6.2 mi South 16.1 mph - N/A   Mostly Cloudy
1:00 PM 62.6 °F 37.4 °F 39% 29.95 in 6.2 mi South 10.4 mph - N/A   Mostly Cloudy
1:30 PM 62 °F 39 °F 31% 29.96 in - SW 18.4 mph - -  
1:30 PM 62.6 °F 39.2 °F 42% 29.95 in 6.2 mi SW 18.4 mph - N/A   Mostly Cloudy
2:00 PM 64.4 °F 37.4 °F 37% 29.95 in 6.2 mi SW 19.6 mph - N/A   Mostly Cloudy
2:30 PM 64.4 °F 39.2 °F 40% 29.95 in 6.2 mi SW 17.3 mph - N/A   Mostly Cloudy
3:00 PM 64 °F 39 °F 28% 29.95 in 19 mi South 16.1 mph - -   Partly Cloudy
3:00 PM 64.4 °F 39.2 °F 40% 29.95 in 6.2 mi South 16.1 mph - N/A   Mostly Cloudy
3:30 PM 64.4 °F 35.6 °F 34% 29.95 in 6.2 mi South 17.3 mph - N/A   Mostly Cloudy
4:00 PM 62.6 °F 37.4 °F 39% 29.95 in 6.2 mi SSW 17.3 mph - N/A   Mostly Cloudy
4:30 PM 63 °F 37 °F 26% 29.95 in - SW 20.7 mph - -  
4:30 PM 62.6 °F 37.4 °F 39% 29.95 in 6.2 mi SW 20.7 mph - N/A   Scattered Clouds
5:00 PM 62.6 °F 35.6 °F 37% 29.95 in 6.2 mi SSW 20.7 mph - N/A   Scattered Clouds
5:30 PM 62.6 °F 35.6 °F 37% 29.95 in 6.2 mi SSW 16.1 mph - N/A   Partly Cloudy
6:00 PM 62 °F 34 °F 23% 29.95 in 19 mi South 16.1 mph - -   Partly Cloudy
6:00 PM 62.6 °F 33.8 °F 34% 29.95 in 6.2 mi South 16.1 mph - N/A   Partly Cloudy
6:30 PM 62.6 °F 33.8 °F 34% 29.92 in 6.2 mi South 17.3 mph - N/A   Partly Cloudy
7:00 PM 60.8 °F 33.8 °F 36% 29.95 in 6.2 mi South 16.1 mph - N/A   Partly Cloudy
7:30 PM 59 °F 35 °F 28% 29.96 in - South 16.1 mph - -  
7:30 PM 59.0 °F 35.6 °F 42% 29.95 in 6.2 mi South 16.1 mph - N/A   Scattered Clouds
8:00 PM 57.2 °F 35.6 °F 44% 29.95 in 6.2 mi South 13.8 mph - N/A   Partly Cloudy
8:30 PM 57.2 °F 35.6 °F 44% 29.98 in 6.2 mi South 15.0 mph - N/A   Partly Cloudy
9:00 PM 55 °F 39 °F 43% 29.98 in 25 mi SSE 10.4 mph - -   Partly Cloudy
9:00 PM 55.4 °F 39.2 °F 54% 29.98 in 6.2 mi SSE 10.4 mph - N/A   Partly Cloudy
9:30 PM 55.4 °F 39.2 °F 54% 29.98 in 6.2 mi South 10.4 mph - N/A   Partly Cloudy
10:00 PM 53.6 °F 41.0 °F 62% 29.98 in 6.2 mi South 9.2 mph - N/A   Partly Cloudy
10:30 PM 53 °F 41 °F 54% 29.99 in - SSE 8.1 mph - -  
10:30 PM 53.6 °F 41.0 °F 62% 29.98 in 6.2 mi SSE 8.1 mph - N/A   Partly Cloudy
11:00 PM 53.6 °F 41.0 °F 62% 29.98 in 6.2 mi South 6.9 mph - N/A   Partly Cloudy
11:30 PM 51.8 °F 42.8 °F 71% 29.98 in 6.2 mi South 6.9 mph - N/A   Partly Cloudy